Location: La B�doule
(43.2468°N, 5.5934°E)
Time: 04:07:08
(UTC+00:00)

STARLINK-71 - Pass Details

Date: 07 June 2020
Orbit: 528 x 529 km, 53.0° (Epoch: 04 July)

Event Time Altitude Azimuth Distance (km) Brightness Sun altitude
Exits shadow 01:16:55 19° 129° (SE) 1,288 5.3 -20.1°
Drops below altitude 10° 01:19:45 10° 84° (E) 1,767 6.6 -19.8°
Enters shadow 02:16:42 -70° 235° (SW) 12,524 10.4 -14.4°
Maximum altitude 02:55:34 70° 327° (NNW) 562 3.7 -9.7°
